Sturgis, MI

9:31 AM EST on December 11, 2016 (GMT -0500)
Kirsch Municipal

Weather History for KIRS - August, 2013

Change the Weather History Date:

Sunday, August 4, 2013

  Actual Average (KHAI) Record (KHAI)
Temperature  
Mean Temperature 63 °F -  
Max Temperature 73 °F 82 °F 97 °F (1988)
Min Temperature 53 °F 57 °F 45 °F (1978)
Degree Days  
Heating Degree Days 2    
Growing Degree Days 13 (Base 50)    
Moisture  
Dew Point 54 °F    
Average Humidity 73    
Maximum Humidity 94    
Minimum Humidity 50    
Precipitation  
Precipitation 0.00 in - - ()
Sea Level Pressure  
Sea Level Pressure 30.15 in    
Wind  
Wind Speed 3 mph (North)    
Max Wind Speed 15 mph    
Max Gust Speed 20 mph    
Visibility 10 miles    
Events      
Averages and records for this station are not official NWS values.
T = Trace of Precipitation, MM = Missing Value Source: NWS Daily Summary

Daily Weather History Graph

Daily Weather History Graph

Search for Another Location

Airport or City:

Trip Planner

Search our weather history database for the weather conditions in past years. The results will help you decide how hot, cold, wet, or windy it might be!

Date:

Astronomy

Aug. 04, 2013 Rise Set
Actual Time 6:38 AM EDT 8:56 PM EDT
Civil Twilight 6:07 AM EDT 9:26 PM EDT
Nautical Twilight 5:29 AM EDT 10:05 PM EDT
Astronomical Twilight 4:46 AM EDT 10:47 PM EDT
Moon 4:38 AM EDT (8/4) 7:18 PM EDT (8/4)
Length of Visible Light 15h 19m
Length of Day
14h 17m
Waning Crescent, 5% of the Moon is Illuminated
Aug 4
Waning Crescent
Aug 6
New
Aug 14
First Quarter
Aug 20
Full
Aug 28
Last Quarter

Hourly Weather History & Observations

Time (EDT) Temp. Dew Point Humidity Pressure Visibility Wind Dir Wind Speed Gust Speed Precip Events Conditions
12:14 AM 59.0 °F 53.6 °F 82% 30.09 in 10.0 mi NNW 3.5 mph - N/A   Clear
12:35 AM 57.2 °F 53.6 °F 88% 30.09 in 10.0 mi North 3.5 mph - N/A   Clear
12:54 AM 57.2 °F 53.6 °F 88% 30.09 in 10.0 mi Calm Calm - N/A   Clear
1:15 AM 57.2 °F 53.6 °F 88% 30.10 in 10.0 mi Calm Calm - N/A   Clear
1:35 AM 57.2 °F 53.6 °F 88% 30.10 in 10.0 mi Calm Calm - N/A   Clear
1:54 AM 57.2 °F 53.6 °F 88% 30.10 in 10.0 mi Calm Calm - N/A   Clear
2:15 AM 57.2 °F 53.6 °F 88% 30.11 in 10.0 mi Calm Calm - N/A   Clear
2:34 AM 57.2 °F 53.6 °F 88% 30.11 in 10.0 mi Calm Calm - N/A   Clear
2:55 AM 57.2 °F 53.6 °F 88% 30.11 in 10.0 mi North 4.6 mph - N/A   Clear
3:15 AM 57.2 °F 53.6 °F 88% 30.11 in 10.0 mi North 4.6 mph - N/A   Clear
3:34 AM 57.2 °F 53.6 °F 88% 30.12 in 10.0 mi North 3.5 mph - N/A   Clear
3:54 AM 55.4 °F 53.6 °F 94% 30.13 in 10.0 mi Calm Calm - N/A   Clear
4:15 AM 55.4 °F 53.6 °F 94% 30.14 in 10.0 mi Calm Calm - N/A   Clear
4:34 AM 55.4 °F 51.8 °F 88% 30.13 in 10.0 mi Calm Calm - N/A   Clear
4:55 AM 55.4 °F 51.8 °F 88% 30.13 in 10.0 mi Calm Calm - N/A   Clear
5:15 AM 53.6 °F 51.8 °F 94% 30.13 in 10.0 mi Calm Calm - N/A   Clear
5:34 AM 53.6 °F 51.8 °F 94% 30.14 in 10.0 mi Calm Calm - N/A   Clear
5:55 AM 55.4 °F 51.8 °F 88% 30.14 in 10.0 mi North 4.6 mph - N/A   Clear
6:15 AM 55.4 °F 53.6 °F 94% 30.14 in 10.0 mi NNE 6.9 mph - N/A   Clear
6:34 AM 55.4 °F 53.6 °F 94% 30.13 in 10.0 mi NNE 5.8 mph - N/A   Clear
6:55 AM 55.4 °F 53.6 °F 94% 30.14 in 10.0 mi NNE 5.8 mph - N/A   Clear
7:15 AM 55.4 °F 53.6 °F 94% 30.16 in 10.0 mi Calm Calm - N/A   Clear
7:34 AM 55.4 °F 53.6 °F 94% 30.17 in 10.0 mi Calm Calm - N/A   Clear
7:55 AM 57.2 °F 53.6 °F 88% 30.17 in 10.0 mi Calm Calm - N/A   Clear
8:15 AM 59.0 °F 53.6 °F 82% 30.17 in 10.0 mi Calm Calm - N/A   Clear
8:35 AM 60.8 °F 55.4 °F 82% 30.17 in 10.0 mi Calm Calm - N/A   Clear
8:55 AM 60.8 °F 53.6 °F 77% 30.17 in 10.0 mi Calm Calm - N/A   Clear
9:14 AM 62.6 °F 55.4 °F 77% 30.18 in 10.0 mi Calm Calm - N/A   Clear
9:35 AM 62.6 °F 55.4 °F 77% 30.18 in 10.0 mi Calm Calm - N/A   Clear
9:55 AM 62.6 °F 53.6 °F 72% 30.19 in 10.0 mi NNE 6.9 mph - N/A   Clear
10:14 AM 64.4 °F 55.4 °F 73% 30.19 in 10.0 mi Calm Calm - N/A   Clear
10:35 AM 64.4 °F 55.4 °F 73% 30.19 in 10.0 mi North 6.9 mph - N/A   Clear
10:55 AM 66.2 °F 55.4 °F 68% 30.19 in 10.0 mi North 4.6 mph - N/A   Clear
11:14 AM 66.2 °F 55.4 °F 68% 30.20 in 10.0 mi NNW 9.2 mph - N/A   Clear
11:35 AM 66.2 °F 55.4 °F 68% 30.20 in 10.0 mi NNW 6.9 mph - N/A   Clear
11:54 AM 68.0 °F 55.4 °F 64% 30.20 in 10.0 mi WNW 11.5 mph - N/A   Clear
12:15 PM 69.8 °F 57.2 °F 64% 30.19 in 10.0 mi North 10.4 mph - N/A   Clear
12:35 PM 69.8 °F 55.4 °F 60% 30.19 in 10.0 mi NNW 10.4 mph - N/A   Clear
12:54 PM 69.8 °F 55.4 °F 60% 30.18 in 10.0 mi NNW 15.0 mph 19.6 mph N/A   Clear
1:15 PM 69.8 °F 55.4 °F 60% 30.17 in 10.0 mi NW 9.2 mph 16.1 mph N/A   Clear
1:35 PM 69.8 °F 55.4 °F 60% 30.17 in 10.0 mi North 4.6 mph - N/A   Clear
1:54 PM 69.8 °F 53.6 °F 56% 30.17 in 10.0 mi North 8.1 mph - N/A   Clear
2:15 PM 71.6 °F 53.6 °F 53% 30.17 in 10.0 mi North 8.1 mph - N/A   Clear
2:35 PM 71.6 °F 51.8 °F 50% 30.17 in 10.0 mi NNW 3.5 mph - N/A   Clear
2:54 PM 71.6 °F 53.6 °F 53% 30.16 in 10.0 mi North 4.6 mph - N/A   Scattered Clouds
3:15 PM 71.6 °F 53.6 °F 53% 30.16 in 10.0 mi NW 4.6 mph - N/A   Scattered Clouds
3:35 PM 71.6 °F 53.6 °F 53% 30.16 in 10.0 mi NNW 5.8 mph 9.2 mph N/A   Clear
3:54 PM 71.6 °F 51.8 °F 50% 30.16 in 10.0 mi NW 6.9 mph - N/A   Scattered Clouds
4:15 PM 73.4 °F 53.6 °F 50% 30.15 in 10.0 mi North 8.1 mph - N/A   Mostly Cloudy
4:35 PM 71.6 °F 51.8 °F 50% 30.15 in 10.0 mi NNW 5.8 mph - N/A   Scattered Clouds
4:54 PM 71.6 °F 51.8 °F 50% 30.14 in 10.0 mi North 3.5 mph - N/A   Scattered Clouds
5:15 PM 69.8 °F 51.8 °F 53% 30.14 in 10.0 mi North 4.6 mph - N/A   Mostly Cloudy
5:35 PM 71.6 °F 51.8 °F 50% 30.13 in 10.0 mi NNE 8.1 mph - N/A   Scattered Clouds
5:54 PM 71.6 °F 53.6 °F 53% 30.14 in 10.0 mi Calm Calm - N/A   Scattered Clouds
6:15 PM 71.6 °F 51.8 °F 50% 30.14 in 10.0 mi North 3.5 mph - N/A   Scattered Clouds
6:34 PM 71.6 °F 51.8 °F 50% 30.15 in 10.0 mi NW 5.8 mph - N/A   Scattered Clouds
6:55 PM 69.8 °F 51.8 °F 53% 30.14 in 10.0 mi Calm Calm - N/A   Scattered Clouds
7:15 PM 71.6 °F 53.6 °F 53% 30.14 in 10.0 mi North 5.8 mph - N/A   Scattered Clouds
7:34 PM 69.8 °F 53.6 °F 56% 30.14 in 10.0 mi Calm Calm - N/A   Scattered Clouds
7:54 PM 68.0 °F 55.4 °F 64% 30.14 in 10.0 mi Calm Calm - N/A   Scattered Clouds
8:15 PM 66.2 °F 55.4 °F 68% 30.13 in 10.0 mi Calm Calm - N/A   Clear
8:34 PM 66.2 °F 55.4 °F 68% 30.13 in 10.0 mi NW 3.5 mph - N/A   Clear
8:55 PM 64.4 °F 55.4 °F 73% 30.14 in 10.0 mi NNW 3.5 mph - N/A   Clear
9:15 PM 64.4 °F 55.4 °F 73% 30.14 in 10.0 mi Calm Calm - N/A   Clear
9:34 PM 64.4 °F 53.6 °F 68% 30.14 in 10.0 mi Calm Calm - N/A   Clear
9:55 PM 62.6 °F 53.6 °F 72% 30.14 in 10.0 mi Calm Calm - N/A   Clear
10:15 PM 62.6 °F 53.6 °F 72% 30.14 in 10.0 mi Calm Calm - N/A   Clear
10:34 PM 60.8 °F 55.4 °F 82% 30.14 in 10.0 mi Calm Calm - N/A   Clear
10:55 PM 60.8 °F 53.6 °F 77% 30.13 in 10.0 mi Calm Calm - N/A   Clear
11:15 PM 57.2 °F 53.6 °F 88% 30.13 in 10.0 mi Calm Calm - N/A   Clear
11:34 PM 59.0 °F 51.8 °F 77% 30.13 in 10.0 mi Calm Calm - N/A   Clear
11:55 PM 55.4 °F 53.6 °F 94% 30.13 in 10.0 mi Calm Calm - N/A   Clear